Weather History for Budapest / Lorinc, Hungary

Change the Weather History Date:

Saturday, January 11, 2014

  Actual Average Record
Temperature  
Mean Temperature 38 °F -  
Max Temperature 45 °F 36 °F - ()
Min Temperature 32 °F 26 °F - ()
Degree Days  
Heating Degree Days 26    
Moisture  
Dew Point 35 °F    
Average Humidity 80    
Maximum Humidity 92    
Minimum Humidity 56    
Precipitation  
Precipitation 0.00 in 0.04 in - ()
Sea Level Pressure  
Sea Level Pressure 30.15 in    
Wind  
Wind Speed 3 mph ()    
Max Wind Speed 7 mph    
Max Gust Speed -    
Visibility 10.6 miles    
Events Rain    
T = Trace of Precipitation, MM = Missing Value Source: Averaged Metar Reports

Daily Weather History Graph

Daily Weather History Graph

Search for Another Location

Airport:

Trip Planner

Search our weather history database for the weather conditions in past years. The results will help you decide how hot, cold, wet, or windy it might be!

Date:

Astronomy

Jan. 11, 2014 Rise Set
Actual Time 7:28 AM CET 4:14 PM CET
Civil Twilight 6:53 AM CET 4:49 PM CET
Nautical Twilight 6:15 AM CET 5:27 PM CET
Astronomical Twilight 5:38 AM CET 6:04 PM CET
Moon 12:49 PM CET (1/11) 3:11 AM CET (1/11)
Length of Visible Light 9h 55m
Length of Day
8h 45m
Waxing Gibbous, 81% of the Moon is Illuminated
Jan 11
Waxing Gibbous
Jan 16
Full
Jan 24
Last Quarter
Jan 30
New
Feb 6
First Quarter

Hourly Weather History & Observations

Time (CET) Temp. Dew Point Humidity Pressure Visibility Wind Dir Wind Speed Gust Speed Precip Events Conditions
12:00 AM 36 °F 31 °F 76% 30.19 in 19 mi WSW 6.7 mph - -   Partly Cloudy
1:00 AM 36 °F 31 °F 76% 30.19 in 16 mi WSW 4.5 mph - -   Partly Cloudy
2:00 AM 36 °F 31 °F 76% 30.18 in 16 mi WSW 2.2 mph - -   Partly Cloudy
3:00 AM 33 °F 31 °F 87% 30.18 in 16 mi Calm Calm - -   Partly Cloudy
4:00 AM 34 °F 32 °F 87% 30.18 in 16 mi SSW 2.2 mph - -   Partly Cloudy
5:00 AM 34 °F 32 °F 87% 30.18 in 16 mi South 2.2 mph - -   Partly Cloudy
6:00 AM 35 °F 32 °F 85% 30.19 in 12 mi South 2.2 mph - -   Partly Cloudy
7:00 AM 35 °F 33 °F 88% 30.19 in 12 mi SSW 2.2 mph - -   Partly Cloudy
8:00 AM 36 °F 33 °F 85% 30.19 in 19 mi WSW 2.2 mph - -   Partly Cloudy
9:00 AM 36 °F 34 °F 87% 30.20 in 16 mi Calm Calm - -   Partly Cloudy
10:00 AM 38 °F 35 °F 83% 30.19 in 12 mi East 2.2 mph - -   Partly Cloudy
11:00 AM 39 °F 35 °F 79% 30.19 in 11 mi East 2.2 mph - -   Partly Cloudy
12:00 PM 43 °F 35 °F 65% 30.16 in 6 mi ENE 4.5 mph - -   Partly Cloudy
1:00 PM 45 °F 35 °F 56% 30.14 in 9 mi SE 2.2 mph - -   Partly Cloudy
2:00 PM 45 °F 36 °F 63% 30.12 in 8 mi South 2.2 mph - -   Partly Cloudy
3:00 PM 46 °F 38 °F 63% 30.11 in 7 mi South 2.2 mph - -   Partly Cloudy
4:00 PM 45 °F 38 °F 70% 30.11 in 6 mi South 2.2 mph - -   Partly Cloudy
5:00 PM 44 °F 39 °F 75% 30.10 in 7 mi Calm Calm - -   Partly Cloudy
6:00 PM 44 °F 39 °F 76% 30.10 in 7 mi Calm Calm - -   Partly Cloudy
7:00 PM 43 °F 40 °F 85% 30.11 in 8 mi SW 4.5 mph - -   Partly Cloudy
8:00 PM 42 °F 40 °F 89% 30.10 in 6 mi WSW 4.5 mph - -   Partly Cloudy
9:00 PM 42 °F 40 °F 90% 30.09 in 2 mi WNW 2.2 mph - -   Mist
10:00 PM 41 °F 40 °F 92% 30.09 in 3 mi South 2.2 mph - -   Mist
11:00 PM 41 °F 39 °F 92% 30.08 in 4 mi SSW 2.2 mph - - Rain Light Rain